| time (UTC) | temp C | wind direction | speed KPH | gust KPH | rain 1hr cm | rain 24hr cm | rain mn cm | humidity % | barometer mb |
| 20260508105050 | 16 | 228 | 0.0 | 3.2 | 0.00 | 0.00 | 0.00 | 49 | 1016.7 |
| 20260508104555 | 16 | 242 | 0.0 | 1.6 | 0.00 | 0.00 | 0.00 | 50 | 1016.7 |
| 20260508104047 | 15 | 242 | 0.0 | 3.2 | 0.00 | 0.00 | 0.00 | 49 | 1016.7 |
| 20260508103546 | 15 | 244 | 0.0 | 3.2 | 0.00 | 0.00 | 0.00 | 49 | 1016.8 |
| 20260508103046 | 15 | 161 | 0.0 | 4.8 | 0.00 | 0.00 | 0.00 | 48 | 1016.7 |
| 20260508102545 | 15 | 159 | 0.0 | 4.8 | 0.00 | 0.00 | 0.00 | 47 | 1016.8 |
| 20260508102045 | 15 | 16 | 0.0 | 3.2 | 0.00 | 0.00 | 0.00 | 49 | 1016.8 |
| 20260508101547 | 15 | 15 | 0.0 | 3.2 | 0.00 | 0.00 | 0.00 | 51 | 1016.8 |
| 20260508101043 | 15 | 294 | 0.0 | 3.2 | 0.00 | 0.00 | 0.00 | 53 | 1016.8 |
| 20260508100542 | 15 | 294 | 0.0 | 6.4 | 0.00 | 0.00 | 0.00 | 50 | 1016.9 |
| 20260508100043 | 15 | 294 | 0.0 | 6.4 | 0.00 | 0.00 | 0.00 | 51 | 1016.9 |
| 20260508095543 | 15 | 28 | 0.0 | 3.2 | 0.00 | 0.00 | 0.00 | 52 | 1016.9 |
| 20260508095043 | 15 | 105 | 0.0 | 3.2 | 0.00 | 0.00 | 0.00 | 52 | 1016.9 |
| 20260508094542 | 15 | 312 | 0.0 | 4.8 | 0.00 | 0.00 | 0.00 | 53 | 1016.9 |
| 20260508094041 | 15 | 312 | 0.0 | 4.8 | 0.00 | 0.00 | 0.00 | 51 | 1016.9 |
| 20260508093541 | 15 | 312 | 0.0 | 6.4 | 0.00 | 0.00 | 0.00 | 52 | 1017.0 |
| 20260508093041 | 15 | 309 | 0.0 | 6.4 | 0.00 | 0.00 | 0.00 | 51 | 1016.9 |
| 20260508092540 | 15 | 327 | 1.6 | 4.8 | 0.00 | 0.00 | 0.00 | 52 | 1017.0 |
| 20260508092039 | 15 | 111 | 0.0 | 3.2 | 0.00 | 0.00 | 0.00 | 52 | 1016.9 |
| 20260508091539 | 15 | 61 | 0.0 | 4.8 | 0.00 | 0.00 | 0.00 | 53 | 1016.9 |
| 20260508091037 | 15 | 81 | 0.0 | 6.4 | 0.00 | 0.00 | 0.00 | 54 | 1016.8 |
| 20260508090537 | 15 | 298 | 0.0 | 8.0 | 0.00 | 0.00 | 0.00 | 55 | 1016.8 |
| 20260508090044 | 15 | 142 | 0.0 | 8.0 | 0.00 | 0.00 | 0.00 | 54 | 1016.8 |
| 20260508085536 | 15 | 293 | 0.0 | 8.0 | 0.00 | 0.00 | 0.00 | 55 | 1016.8 |
| 20260508085036 | 15 | 168 | 0.0 | 6.4 | 0.00 | 0.00 | 0.00 | 57 | 1016.8 |
| 20260508084534 | 14 | 315 | 0.0 | 4.8 | 0.00 | 0.00 | 0.00 | 60 | 1016.8 |
| 20260508084033 | 14 | 315 | 1.6 | 6.4 | 0.00 | 0.00 | 0.00 | 60 | 1016.8 |
| 20260508083530 | 13 | 33 | 0.0 | 6.4 | 0.00 | 0.00 | 0.00 | 61 | 1016.8 |
| 20260508083037 | 13 | 15 | 0.0 | 4.8 | 0.00 | 0.00 | 0.00 | 64 | 1016.8 |
| 20260508082530 | 13 | 324 | 0.0 | 3.2 | 0.00 | 0.00 | 0.00 | 63 | 1016.8 |
| 20260508082028 | 13 | 93 | 0.0 | 4.8 | 0.00 | 0.00 | 0.00 | 65 | 1016.7 |
| 20260508081526 | 13 | 123 | 0.0 | 6.4 | 0.00 | 0.00 | 0.00 | 65 | 1016.7 |
| 20260508081025 | 13 | 115 | 0.0 | 6.4 | 0.00 | 0.00 | 0.00 | 66 | 1016.8 |
| 20260508080526 | 12 | 92 | 0.0 | 1.6 | 0.00 | 0.00 | 0.00 | 67 | 1016.8 |
| 20260508080027 | 12 | 88 | 0.0 | 3.2 | 0.00 | 0.00 | 0.00 | 68 | 1016.8 |
| 20260508075522 | 12 | 88 | 0.0 | 4.8 | 0.00 | 0.00 | 0.00 | 68 | 1016.8 |
| 20260508075019 | 12 | 105 | 0.0 | 4.8 | 0.00 | 0.00 | 0.00 | 68 | 1016.7 |
| 20260508074519 | 12 | 278 | 0.0 | 1.6 | 0.00 | 0.00 | 0.00 | 69 | 1016.7 |
| 20260508074017 | 12 | 152 | 0.0 | 0.0 | 0.00 | 0.00 | 0.00 | 70 | 1016.7 |
| 20260508073516 | 12 | 148 | 0.0 | 1.6 | 0.00 | 0.00 | 0.00 | 70 | 1016.6 |
| 20260508073016 | 12 | 146 | 0.0 | 1.6 | 0.00 | 0.00 | 0.00 | 70 | 1016.6 |
| 20260508072512 | 12 | 135 | 0.0 | 4.8 | 0.00 | 0.00 | 0.00 | 72 | 1016.6 |
| 20260508072011 | 11 | 186 | 0.0 | 4.8 | 0.00 | 0.00 | 0.00 | 73 | 1016.6 |
| 20260508071510 | 11 | 288 | 0.0 | 3.2 | 0.00 | 0.00 | 0.00 | 73 | 1016.6 |
| 20260508071008 | 11 | 130 | 0.0 | 1.6 | 0.00 | 0.00 | 0.00 | 75 | 1016.5 |
| 20260508070508 | 11 | 134 | 0.0 | 0.0 | 0.00 | 0.00 | 0.00 | 75 | 1016.5 |
| 20260508070007 | 11 | 134 | 0.0 | 1.6 | 0.00 | 0.00 | 0.00 | 77 | 1016.4 |
| 20260508065504 | 11 | 130 | 0.0 | 1.6 | 0.00 | 0.00 | 0.00 | 78 | 1016.4 |
| 20260508065003 | 11 | 128 | 0.0 | 6.4 | 0.00 | 0.00 | 0.00 | 78 | 1016.4 |
| 20260508064502 | 11 | 126 | 0.0 | 6.4 | 0.00 | 0.00 | 0.00 | 79 | 1016.3 |
| 20260508064003 | 10 | 166 | 0.0 | 6.4 | 0.00 | 0.00 | 0.00 | 81 | 1016.2 |
| 20260508063559 | 10 | 166 | 0.0 | 6.4 | 0.00 | 0.00 | 0.00 | 82 | 1016.2 |
| 20260508063059 | 10 | 134 | 0.0 | 3.2 | 0.00 | 0.00 | 0.00 | 82 | 1016.2 |
| 20260508062558 | 10 | 152 | 0.0 | 1.6 | 0.00 | 0.00 | 0.00 | 82 | 1016.1 |
| 20260508062055 | 10 | 175 | 0.0 | 0.0 | 0.00 | 0.00 | 0.00 | 83 | 1016.1 |
| 20260508061600 | 10 | 175 | 0.0 | 1.6 | 0.00 | 0.00 | 0.00 | 83 | 1016.1 |
| 20260508061054 | 10 | 175 | 0.0 | 1.6 | 0.00 | 0.00 | 0.00 | 84 | 1016.0 |
| 20260508060552 | 9 | 175 | 0.0 | 1.6 | 0.00 | 0.00 | 0.00 | 84 | 1016.0 |
| 20260508060051 | 9 | 176 | 0.0 | 1.6 | 0.00 | 0.00 | 0.00 | 85 | 1016.0 |
| 20260508055551 | 9 | 176 | 0.0 | 0.0 | 0.00 | 0.00 | 0.00 | 85 | 1016.0 |
| 20260508055051 | 9 | 176 | 0.0 | 0.0 | 0.00 | 0.00 | 0.00 | 86 | 1015.9 |
| 20260508054615 | 8 | 176 | 0.0 | 0.0 | 0.00 | 0.00 | 0.00 | 86 | 1015.9 |
| 20260508054048 | 8 | 176 | 0.0 | 0.0 | 0.00 | 0.00 | 0.00 | 86 | 1015.9 |
| 20260508053548 | 8 | 176 | 0.0 | 0.0 | 0.00 | 0.00 | 0.00 | 86 | 1016.0 |
| 20260508053047 | 8 | 176 | 0.0 | 0.0 | 0.00 | 0.00 | 0.00 | 87 | 1016.0 |
| 20260508052545 | 8 | 176 | 0.0 | 0.0 | 0.00 | 0.00 | 0.00 | 86 | 1016.0 |
| 20260508052043 | 8 | 176 | 0.0 | 0.0 | 0.00 | 0.00 | 0.00 | 86 | 1015.8 |
| 20260508051545 | 8 | 176 | 0.0 | 0.0 | 0.00 | 0.00 | 0.00 | 86 | 1015.9 |
| 20260508051042 | 8 | 176 | 0.0 | 0.0 | 0.00 | 0.00 | 0.00 | 86 | 1015.8 |
| 20260508050542 | 8 | 176 | 0.0 | 0.0 | 0.00 | 0.00 | 0.00 | 86 | 1015.8 |
| 20260508050043 | 8 | 176 | 0.0 | 0.0 | 0.00 | 0.00 | 0.00 | 86 | 1015.8 |
| 20260508045540 | 8 | 176 | 0.0 | 0.0 | 0.00 | 0.00 | 0.00 | 85 | 1015.8 |
| 20260508045039 | 8 | 176 | 0.0 | 0.0 | 0.00 | 0.00 | 0.00 | 85 | 1015.7 |
| 20260508044539 | 8 | 176 | 0.0 | 0.0 | 0.00 | 0.00 | 0.00 | 85 | 1015.7 |
| 20260508044039 | 8 | 171 | 0.0 | 0.0 | 0.00 | 0.00 | 0.00 | 85 | 1015.6 |
| 20260508043539 | 8 | 171 | 0.0 | 0.0 | 0.00 | 0.00 | 0.00 | 86 | 1015.7 |
| 20260508043047 | 8 | 171 | 0.0 | 0.0 | 0.00 | 0.00 | 0.00 | 86 | 1015.6 |
| 20260508042540 | 8 | 171 | 0.0 | 0.0 | 0.00 | 0.00 | 0.00 | 86 | 1015.6 |
| 20260508042040 | 8 | 171 | 0.0 | 0.0 | 0.00 | 0.00 | 0.00 | 85 | 1015.6 |
| 20260508041537 | 8 | 171 | 0.0 | 0.0 | 0.00 | 0.00 | 0.00 | 86 | 1015.6 |
| 20260508041040 | 8 | 171 | 0.0 | 0.0 | 0.00 | 0.00 | 0.00 | 85 | 1015.6 |
| 20260508040537 | 8 | 171 | 0.0 | 0.0 | 0.00 | 0.00 | 0.00 | 85 | 1015.6 |
| 20260508040043 | 8 | 171 | 0.0 | 0.0 | 0.00 | 0.00 | 0.00 | 85 | 1015.6 |
| 20260508035539 | 8 | 171 | 0.0 | 0.0 | 0.00 | 0.00 | 0.00 | 85 | 1015.5 |
| 20260508035036 | 8 | 171 | 0.0 | 0.0 | 0.00 | 0.00 | 0.00 | 85 | 1015.5 |
| 20260508034536 | 8 | 171 | 0.0 | 0.0 | 0.00 | 0.00 | 0.00 | 85 | 1015.5 |
| 20260508034035 | 8 | 171 | 0.0 | 0.0 | 0.00 | 0.00 | 0.00 | 85 | 1015.5 |
| 20260508033535 | 8 | 171 | 0.0 | 0.0 | 0.00 | 0.00 | 0.00 | 85 | 1015.5 |
| 20260508033036 | 8 | 171 | 0.0 | 0.0 | 0.00 | 0.00 | 0.00 | 84 | 1015.5 |
| 20260508032535 | 8 | 171 | 0.0 | 0.0 | 0.00 | 0.00 | 0.00 | 85 | 1015.5 |
| 20260508032034 | 8 | 171 | 0.0 | 0.0 | 0.00 | 0.00 | 0.00 | 85 | 1015.5 |
| 20260508031535 | 8 | 171 | 0.0 | 0.0 | 0.00 | 0.00 | 0.00 | 85 | 1015.5 |
| 20260508031033 | 7 | 171 | 0.0 | 0.0 | 0.00 | 0.00 | 0.00 | 85 | 1015.5 |
| 20260508030534 | 7 | 171 | 0.0 | 0.0 | 0.00 | 0.00 | 0.00 | 85 | 1015.5 |
| 20260508030034 | 7 | 171 | 0.0 | 0.0 | 0.00 | 0.00 | 0.00 | 85 | 1015.5 |
| 20260508025533 | 7 | 171 | 0.0 | 0.0 | 0.00 | 0.00 | 0.00 | 85 | 1015.5 |
| 20260508025036 | 7 | 171 | 0.0 | 0.0 | 0.00 | 0.00 | 0.00 | 85 | 1015.5 |
| 20260508024533 | 7 | 171 | 0.0 | 0.0 | 0.00 | 0.00 | 0.00 | 85 | 1015.5 |
| 20260508024032 | 7 | 171 | 0.0 | 0.0 | 0.00 | 0.00 | 0.00 | 85 | 1015.5 |
| 20260508023531 | 7 | 171 | 0.0 | 0.0 | 0.00 | 0.00 | 0.00 | 85 | 1015.5 |
| 20260508023031 | 7 | 171 | 0.0 | 0.0 | 0.00 | 0.00 | 0.00 | 85 | 1015.5 |
| 20260508022531 | 7 | 171 | 0.0 | 1.6 | 0.00 | 0.00 | 0.00 | 85 | 1015.5 |
| 20260508022031 | 7 | 171 | 0.0 | 0.0 | 0.00 | 0.00 | 0.00 | 85 | 1015.4 |
| 20260508021530 | 7 | 171 | 0.0 | 0.0 | 0.00 | 0.00 | 0.00 | 85 | 1015.4 |
| 20260508021033 | 7 | 171 | 0.0 | 0.0 | 0.00 | 0.00 | 0.00 | 84 | 1015.4 |
| 20260508020530 | 7 | 171 | 0.0 | 0.0 | 0.00 | 0.00 | 0.00 | 84 | 1015.4 |
| 20260508020029 | 7 | 171 | 0.0 | 0.0 | 0.00 | 0.00 | 0.00 | 83 | 1015.4 |
| 20260508015528 | 7 | 171 | 0.0 | 0.0 | 0.00 | 0.00 | 0.00 | 82 | 1015.4 |
| 20260508015029 | 8 | 171 | 0.0 | 0.0 | 0.00 | 0.00 | 0.00 | 83 | 1015.3 |
| 20260508014527 | 8 | 171 | 0.0 | 0.0 | 0.00 | 0.00 | 0.00 | 82 | 1015.4 |
| 20260508014026 | 8 | 171 | 0.0 | 0.0 | 0.00 | 0.00 | 0.00 | 82 | 1015.4 |
| 20260508013525 | 8 | 171 | 0.0 | 0.0 | 0.00 | 0.00 | 0.00 | 81 | 1015.4 |
| 20260508013026 | 8 | 171 | 0.0 | 0.0 | 0.00 | 0.00 | 0.00 | 81 | 1015.4 |
| 20260508012524 | 8 | 171 | 0.0 | 0.0 | 0.00 | 0.00 | 0.00 | 81 | 1015.5 |
| 20260508012022 | 8 | 171 | 0.0 | 0.0 | 0.00 | 0.00 | 0.00 | 81 | 1015.5 |
| 20260508011524 | 8 | 171 | 0.0 | 0.0 | 0.00 | 0.00 | 0.00 | 81 | 1015.5 |
| 20260508011021 | 8 | 171 | 0.0 | 0.0 | 0.00 | 0.00 | 0.00 | 81 | 1015.5 |
| 20260508010521 | 8 | 171 | 0.0 | 0.0 | 0.00 | 0.00 | 0.00 | 81 | 1015.5 |
| 20260508010027 | 9 | 171 | 0.0 | 0.0 | 0.00 | 0.00 | 0.00 | 80 | 1015.5 |
| 20260508005520 | 9 | 171 | 0.0 | 0.0 | 0.00 | 0.00 | 0.00 | 80 | 1015.4 |
| 20260508005019 | 9 | 171 | 0.0 | 0.0 | 0.00 | 0.00 | 0.00 | 79 | 1015.4 |
| 20260508004531 | 9 | 171 | 0.0 | 0.0 | 0.00 | 0.00 | 0.00 | 79 | 1015.5 |
| 20260508004018 | 9 | 171 | 0.0 | 0.0 | 0.00 | 0.00 | 0.00 | 78 | 1015.5 |
| 20260508003517 | 9 | 171 | 0.0 | 0.0 | 0.00 | 0.00 | 0.00 | 78 | 1015.5 |
| 20260508003016 | 10 | 171 | 0.0 | 0.0 | 0.00 | 0.00 | 0.00 | 78 | 1015.5 |
| 20260508002516 | 10 | 171 | 0.0 | 0.0 | 0.00 | 0.00 | 0.00 | 77 | 1015.5 |
| 20260508002015 | 10 | 171 | 0.0 | 0.0 | 0.00 | 0.00 | 0.00 | 77 | 1015.5 |
| 20260508001515 | 10 | 171 | 0.0 | 0.0 | 0.00 | 0.00 | 0.00 | 77 | 1015.5 |
| 20260508001014 | 10 | 171 | 0.0 | 0.0 | 0.00 | 0.00 | 0.00 | 77 | 1015.5 |
| 20260508000519 | 10 | 171 | 0.0 | 0.0 | 0.00 | 0.00 | 0.00 | 77 | 1015.5 |
| 20260508000015 | 10 | 171 | 0.0 | 0.0 | 0.00 | 0.00 | 0.00 | 77 | 1015.5 |
| 20260507235514 | 10 | 171 | 0.0 | 0.0 | 0.00 | 0.00 | 0.00 | 76 | 1015.5 |
| 20260507235012 | 10 | 171 | 0.0 | 0.0 | 0.00 | 0.00 | 0.00 | 76 | 1015.6 |
| 20260507234521 | 10 | 171 | 0.0 | 0.0 | 0.00 | 0.00 | 0.00 | 76 | 1015.6 |
| 20260507234011 | 10 | 171 | 0.0 | 0.0 | 0.00 | 0.00 | 0.00 | 76 | 1015.6 |
| 20260507233511 | 10 | 171 | 0.0 | 0.0 | 0.00 | 0.00 | 0.00 | 75 | 1015.5 |
| 20260507233018 | 10 | 171 | 0.0 | 0.0 | 0.00 | 0.00 | 0.00 | 75 | 1015.5 |
| 20260507232512 | 10 | 171 | 0.0 | 0.0 | 0.00 | 0.00 | 0.00 | 75 | 1015.5 |
| 20260507232010 | 10 | 171 | 0.0 | 0.0 | 0.00 | 0.00 | 0.00 | 75 | 1015.5 |
| 20260507231508 | 10 | 171 | 0.0 | 0.0 | 0.00 | 0.00 | 0.00 | 75 | 1015.5 |
| 20260507231008 | 10 | 171 | 0.0 | 1.6 | 0.00 | 0.00 | 0.00 | 75 | 1015.4 |
| 20260507230507 | 10 | 171 | 0.0 | 1.6 | 0.00 | 0.00 | 0.00 | 74 | 1015.4 |
| 20260507230005 | 10 | 171 | 0.0 | 0.0 | 0.00 | 0.00 | 0.00 | 74 | 1015.4 |
| 20260507225505 | 10 | 171 | 0.0 | 3.2 | 0.00 | 0.00 | 0.00 | 74 | 1015.5 |
| 20260507225005 | 10 | 171 | 0.0 | 3.2 | 0.00 | 0.00 | 0.00 | 75 | 1015.5 |
| 20260507224509 | 10 | 192 | 0.0 | 0.0 | 0.00 | 0.00 | 0.00 | 75 | 1015.5 |
| 20260507224004 | 10 | 192 | 0.0 | 1.6 | 0.00 | 0.00 | 0.00 | 75 | 1015.4 |
| 20260507223504 | 10 | 192 | 0.0 | 3.2 | 0.00 | 0.00 | 0.00 | 74 | 1015.4 |
| 20260507223006 | 10 | 192 | 0.0 | 3.2 | 0.00 | 0.00 | 0.00 | 74 | 1015.3 |
| 20260507222507 | 10 | 193 | 0.0 | 1.6 | 0.00 | 0.00 | 0.00 | 74 | 1015.2 |
| 20260507222004 | 10 | 191 | 0.0 | 3.2 | 0.00 | 0.00 | 0.00 | 74 | 1015.2 |
| 20260507221504 | 10 | 191 | 0.0 | 3.2 | 0.00 | 0.00 | 0.00 | 74 | 1015.2 |
| 20260507221004 | 11 | 191 | 0.0 | 1.6 | 0.00 | 0.00 | 0.00 | 74 | 1015.3 |
| 20260507220505 | 11 | 191 | 0.0 | 0.0 | 0.00 | 0.00 | 0.00 | 74 | 1015.3 |
| 20260507220005 | 11 | 191 | 0.0 | 0.0 | 0.00 | 0.00 | 0.00 | 74 | 1015.3 |
| 20260507215504 | 11 | 191 | 0.0 | 0.0 | 0.00 | 0.00 | 0.00 | 74 | 1015.3 |
| 20260507215005 | 11 | 191 | 0.0 | 0.0 | 0.00 | 0.00 | 0.00 | 74 | 1015.3 |
| 20260507214506 | 11 | 191 | 0.0 | 0.0 | 0.00 | 0.00 | 0.00 | 74 | 1015.4 |
| 20260507214003 | 11 | 191 | 0.0 | 0.0 | 0.00 | 0.00 | 0.00 | 74 | 1015.4 |
| 20260507213604 | 11 | 191 | 0.0 | 0.0 | 0.00 | 0.00 | 0.00 | 74 | 1015.4 |
| 20260507213003 | 11 | 194 | 0.0 | 0.0 | 0.00 | 0.00 | 0.00 | 74 | 1015.4 |
| 20260507212502 | 11 | 194 | 0.0 | 0.0 | 0.00 | 0.00 | 0.00 | 74 | 1015.4 |
| 20260507212002 | 11 | 194 | 0.0 | 0.0 | 0.00 | 0.00 | 0.00 | 74 | 1015.4 |
| 20260507211502 | 11 | 194 | 0.0 | 0.0 | 0.00 | 0.00 | 0.00 | 73 | 1015.3 |
| 20260507211004 | 11 | 194 | 0.0 | 0.0 | 0.00 | 0.00 | 0.00 | 73 | 1015.3 |
| 20260507210502 | 11 | 194 | 0.0 | 0.0 | 0.00 | 0.00 | 0.00 | 73 | 1015.2 |
| 20260507210001 | 11 | 194 | 0.0 | 0.0 | 0.00 | 0.00 | 0.00 | 73 | 1015.2 |
| 20260507205502 | 11 | 194 | 0.0 | 0.0 | 0.00 | 0.00 | 0.00 | 73 | 1015.1 |
| 20260507205000 | 11 | 194 | 0.0 | 0.0 | 0.00 | 0.00 | 0.00 | 73 | 1015.1 |
| 20260507204501 | 11 | 194 | 0.0 | 0.0 | 0.00 | 0.00 | 0.00 | 72 | 1015.1 |
| 20260507204004 | 11 | 194 | 0.0 | 0.0 | 0.00 | 0.00 | 0.00 | 72 | 1015.1 |
| 20260507203504 | 11 | 194 | 0.0 | 0.0 | 0.00 | 0.00 | 0.00 | 72 | 1015.0 |
| 20260507203001 | 11 | 194 | 0.0 | 0.0 | 0.00 | 0.00 | 0.00 | 72 | 1015.0 |
| 20260507202604 | 11 | 194 | 0.0 | 1.6 | 0.00 | 0.00 | 0.00 | 71 | 1014.9 |
| 20260507202104 | 11 | 194 | 0.0 | 1.6 | 0.00 | 0.00 | 0.00 | 71 | 1014.9 |
| 20260507201600 | 11 | 194 | 0.0 | 1.6 | 0.00 | 0.00 | 0.00 | 71 | 1014.9 |
| 20260507201100 | 11 | 194 | 0.0 | 1.6 | 0.00 | 0.00 | 0.00 | 70 | 1014.8 |
| 20260507200601 | 11 | 194 | 0.0 | 0.0 | 0.00 | 0.00 | 0.00 | 71 | 1014.7 |
| 20260507200106 | 11 | 194 | 0.0 | 0.0 | 0.00 | 0.00 | 0.00 | 71 | 1014.7 |
| 20260507195600 | 11 | 194 | 0.0 | 0.0 | 0.00 | 0.00 | 0.00 | 71 | 1014.7 |
| 20260507195059 | 11 | 194 | 0.0 | 0.0 | 0.00 | 0.00 | 0.00 | 70 | 1014.6 |
| 20260507194558 | 11 | 194 | 0.0 | 0.0 | 0.00 | 0.00 | 0.00 | 70 | 1014.6 |
| 20260507194059 | 11 | 194 | 0.0 | 0.0 | 0.00 | 0.00 | 0.00 | 71 | 1014.6 |
| 20260507193559 | 11 | 194 | 0.0 | 0.0 | 0.00 | 0.00 | 0.00 | 71 | 1014.6 |
| 20260507193102 | 11 | 194 | 0.0 | 1.6 | 0.00 | 0.00 | 0.00 | 70 | 1014.5 |
| 20260507192558 | 12 | 194 | 0.0 | 1.6 | 0.00 | 0.00 | 0.00 | 70 | 1014.5 |
| 20260507192100 | 12 | 194 | 0.0 | 1.6 | 0.00 | 0.00 | 0.00 | 70 | 1014.4 |
| 20260507191559 | 12 | 223 | 0.0 | 0.0 | 0.00 | 0.00 | 0.00 | 71 | 1014.5 |
| 20260507191058 | 12 | 223 | 0.0 | 1.6 | 0.00 | 0.00 | 0.00 | 70 | 1014.4 |
| 20260507190557 | 12 | 223 | 0.0 | 4.8 | 0.00 | 0.00 | 0.00 | 69 | 1014.5 |
| 20260507190058 | 12 | 225 | 0.0 | 9.7 | 0.00 | 0.00 | 0.00 | 68 | 1014.5 |
| 20260507185557 | 12 | 296 | 1.6 | 9.7 | 0.00 | 0.00 | 0.00 | 66 | 1014.5 |
| 20260507185057 | 12 | 140 | 0.0 | 6.4 | 0.00 | 0.00 | 0.00 | 65 | 1014.4 |
| 20260507184558 | 12 | 124 | 0.0 | 1.6 | 0.00 | 0.00 | 0.00 | 64 | 1014.4 |
| 20260507184057 | 12 | 103 | 0.0 | 8.0 | 0.00 | 0.00 | 0.00 | 64 | 1014.4 |
| 20260507183558 | 13 | 91 | 1.6 | 8.0 | 0.00 | 0.00 | 0.00 | 63 | 1014.4 |
| 20260507183056 | 13 | 138 | 0.0 | 4.8 | 0.00 | 0.00 | 0.00 | 61 | 1014.4 |
| 20260507182557 | 13 | 298 | 0.0 | 4.8 | 0.00 | 0.00 | 0.00 | 61 | 1014.4 |
| 20260507182056 | 13 | 132 | 0.0 | 9.7 | 0.00 | 0.00 | 0.00 | 59 | 1014.4 |
| 20260507181556 | 13 | 328 | 0.0 | 9.7 | 0.00 | 0.00 | 0.00 | 59 | 1014.3 |
| 20260507181055 | 13 | 326 | 0.0 | 8.0 | 0.00 | 0.00 | 0.00 | 57 | 1014.3 |
| 20260507180556 | 13 | 302 | 0.0 | 1.6 | 0.00 | 0.00 | 0.00 | 58 | 1014.1 |
| 20260507180105 | 13 | 302 | 0.0 | 6.4 | 0.00 | 0.00 | 0.00 | 57 | 1014.1 |
| 20260507175555 | 13 | 266 | 0.0 | 8.0 | 0.00 | 0.00 | 0.00 | 55 | 1014.1 |
| 20260507175055 | 13 | 293 | 0.0 | 3.2 | 0.00 | 0.00 | 0.00 | 54 | 1014.0 |
| 20260507174625 | 14 | 136 | 0.0 | 3.2 | 0.00 | 0.00 | 0.00 | 53 | 1014.0 |
| 20260507174054 | 14 | 136 | 0.0 | 3.2 | 0.00 | 0.00 | 0.00 | 53 | 1014.0 |
| 20260507173554 | 14 | 137 | 0.0 | 1.6 | 0.00 | 0.00 | 0.00 | 52 | 1014.0 |
| 20260507173056 | 14 | 137 | 0.0 | 4.8 | 0.00 | 0.00 | 0.00 | 52 | 1014.0 |
| 20260507172555 | 14 | 140 | 0.0 | 1.6 | 0.00 | 0.00 | 0.00 | 51 | 1014.0 |
| 20260507172053 | 14 | 140 | 0.0 | 4.8 | 0.00 | 0.00 | 0.00 | 50 | 1014.0 |
| 20260507171609 | 14 | 139 | 0.0 | 4.8 | 0.00 | 0.00 | 0.00 | 50 | 1014.0 |
| 20260507171053 | 14 | 142 | 0.0 | 4.8 | 0.00 | 0.00 | 0.00 | 50 | 1014.0 |
| 20260507170553 | 14 | 179 | 0.0 | 1.6 | 0.00 | 0.00 | 0.00 | 49 | 1014.0 |
| 20260507170053 | 14 | 179 | 0.0 | 1.6 | 0.00 | 0.00 | 0.00 | 49 | 1014.1 |
| 20260507165555 | 14 | 179 | 0.0 | 1.6 | 0.00 | 0.00 | 0.00 | 48 | 1014.1 |
| 20260507165052 | 14 | 177 | 0.0 | 3.2 | 0.00 | 0.00 | 0.00 | 47 | 1014.1 |
| 20260507164554 | 15 | 158 | 0.0 | 3.2 | 0.00 | 0.00 | 0.00 | 48 | 1014.1 |
| 20260507164054 | 15 | 159 | 0.0 | 3.2 | 0.00 | 0.00 | 0.00 | 48 | 1014.1 |
| 20260507163552 | 15 | 158 | 0.0 | 4.8 | 0.00 | 0.00 | 0.00 | 47 | 1014.1 |
| 20260507163051 | 15 | 207 | 0.0 | 8.0 | 0.00 | 0.00 | 0.00 | 46 | 1014.1 |
| 20260507162551 | 15 | 124 | 0.0 | 8.0 | 0.00 | 0.00 | 0.00 | 46 | 1014.0 |
| 20260507162054 | 15 | 137 | 0.0 | 6.4 | 0.00 | 0.00 | 0.00 | 46 | 1014.1 |
| 20260507161553 | 15 | 109 | 0.0 | 6.4 | 0.00 | 0.00 | 0.00 | 45 | 1014.1 |
| 20260507161054 | 15 | 338 | 0.0 | 11.3 | 0.00 | 0.00 | 0.00 | 45 | 1014.1 |
| 20260507160550 | 15 | 142 | 1.6 | 11.3 | 0.00 | 0.00 | 0.00 | 46 | 1014.0 |
| 20260507160112 | 15 | 325 | 1.6 | 6.4 | 0.00 | 0.00 | 0.00 | 45 | 1014.1 |
| 20260507155553 | 16 | 115 | 1.6 | 8.0 | 0.00 | 0.00 | 0.00 | 44 | 1014.1 |
| 20260507155052 | 16 | 306 | 3.2 | 9.7 | 0.00 | 0.00 | 0.00 | 42 | 1014.0 |
| 20260507154548 | 16 | 118 | 0.0 | 9.7 | 0.00 | 0.00 | 0.00 | 46 | 1014.1 |
| 20260507154049 | 16 | 343 | 0.0 | 9.7 | 0.00 | 0.00 | 0.00 | 46 | 1014.1 |
| 20260507153551 | 16 | 108 | 1.6 | 8.0 | 0.00 | 0.00 | 0.00 | 46 | 1014.2 |
| 20260507153048 | 16 | 322 | 1.6 | 9.7 | 0.00 | 0.00 | 0.00 | 45 | 1014.2 |
| 20260507152558 | 16 | 344 | 1.6 | 6.4 | 0.00 | 0.00 | 0.00 | 47 | 1014.2 |
| 20260507152050 | 16 | 173 | 1.6 | 8.0 | 0.00 | 0.00 | 0.00 | 45 | 1014.2 |
| 20260507151550 | 16 | 199 | 0.0 | 16.1 | 0.00 | 0.00 | 0.00 | 46 | 1014.2 |
| 20260507151045 | 16 | 305 | 1.6 | 16.1 | 0.00 | 0.00 | 0.00 | 45 | 1014.3 |
| 20260507150545 | 16 | 145 | 0.0 | 12.9 | 0.00 | 0.00 | 0.00 | 47 | 1014.3 |
| 20260507150045 | 16 | 120 | 1.6 | 8.0 | 0.00 | 0.00 | 0.00 | 45 | 1014.4 |
| 20260507145547 | 16 | 318 | 0.0 | 8.0 | 0.00 | 0.00 | 0.00 | 47 | 1014.4 |
| 20260507145047 | 16 | 104 | 1.6 | 6.4 | 0.00 | 0.00 | 0.00 | 45 | 1014.4 |
| 20260507144544 | 16 | 161 | 3.2 | 19.3 | 0.00 | 0.00 | 0.00 | 47 | 1014.4 |
| 20260507144043 | 16 | 224 | 1.6 | 19.3 | 0.00 | 0.00 | 0.00 | 46 | 1014.5 |
| 20260507143542 | 16 | 36 | 0.0 | 8.0 | 0.00 | 0.00 | 0.00 | 48 | 1014.6 |
| 20260507143042 | 16 | 331 | 1.6 | 8.0 | 0.00 | 0.00 | 0.00 | 47 | 1014.6 |
| 20260507142541 | 16 | 194 | 0.0 | 8.0 | 0.00 | 0.00 | 0.00 | 46 | 1014.7 |
| 20260507142039 | 16 | 78 | 0.0 | 6.4 | 0.00 | 0.00 | 0.00 | 48 | 1014.7 |
| 20260507141540 | 16 | 188 | 1.6 | 17.7 | 0.00 | 0.00 | 0.00 | 48 | 1014.8 |
| 20260507141039 | 16 | 336 | 6.4 | 17.7 | 0.00 | 0.00 | 0.00 | 46 | 1014.9 |
| 20260507140538 | 16 | 355 | 0.0 | 8.0 | 0.00 | 0.00 | 0.00 | 49 | 1014.9 |
| 20260507140045 | 16 | 278 | 1.6 | 11.3 | 0.00 | 0.00 | 0.00 | 49 | 1015.0 |
| 20260507135539 | 15 | 132 | 1.6 | 11.3 | 0.00 | 0.00 | 0.00 | 48 | 1015.0 |
| 20260507135037 | 16 | 338 | 3.2 | 9.7 | 0.00 | 0.00 | 0.00 | 48 | 1015.0 |
| 20260507134536 | 15 | 211 | 0.0 | 11.3 | 0.00 | 0.00 | 0.00 | 50 | 1015.0 |
| 20260507134034 | 15 | 298 | 1.6 | 8.0 | 0.00 | 0.00 | 0.00 | 52 | 1015.1 |
| 20260507133534 | 15 | 132 | 0.0 | 8.0 | 0.00 | 0.00 | 0.00 | 51 | 1015.2 |
| 20260507133035 | 15 | 76 | 1.6 | 16.1 | 0.00 | 0.00 | 0.00 | 51 | 1015.2 |
| 20260507132533 | 15 | 341 | 6.4 | 16.1 | 0.00 | 0.00 | 0.00 | 48 | 1015.2 |
| 20260507132032 | 15 | 29 | 0.0 | 12.9 | 0.00 | 0.00 | 0.00 | 51 | 1015.2 |
| 20260507131603 | 15 | 245 | 1.6 | 12.9 | 0.00 | 0.00 | 0.00 | 50 | 1015.2 |
| 20260507131031 | 15 | 321 | 1.6 | 17.7 | 0.00 | 0.00 | 0.00 | 50 | 1015.3 |
| 20260507130530 | 15 | 311 | 4.8 | 17.7 | 0.00 | 0.00 | 0.00 | 49 | 1015.2 |
| 20260507130029 | 15 | 153 | 1.6 | 9.7 | 0.00 | 0.00 | 0.00 | 52 | 1015.3 |
| 20260507125529 | 15 | 148 | 1.6 | 12.9 | 0.00 | 0.00 | 0.00 | 53 | 1015.3 |
| 20260507125028 | 15 | 316 | 1.6 | 12.9 | 0.00 | 0.00 | 0.00 | 52 | 1015.3 |
| 20260507124531 | 15 | 163 | 1.6 | 9.7 | 0.00 | 0.00 | 0.00 | 52 | 1015.4 |
| 20260507124028 | 15 | 286 | 1.6 | 12.9 | 0.00 | 0.00 | 0.00 | 52 | 1015.4 |
| 20260507123528 | 15 | 116 | 1.6 | 12.9 | 0.00 | 0.00 | 0.00 | 52 | 1015.3 |
| 20260507123033 | 15 | 157 | 1.6 | 9.7 | 0.00 | 0.00 | 0.00 | 51 | 1015.3 |
| 20260507122528 | 15 | 11 | 1.6 | 8.0 | 0.00 | 0.00 | 0.00 | 52 | 1015.4 |
| 20260507122024 | 14 | 255 | 0.0 | 6.4 | 0.00 | 0.00 | 0.00 | 56 | 1015.4 |
| 20260507121524 | 14 | 155 | 1.6 | 6.4 | 0.00 | 0.00 | 0.00 | 57 | 1015.4 |
| 20260507121023 | 14 | 136 | 1.6 | 6.4 | 0.00 | 0.00 | 0.00 | 58 | 1015.4 |
| 20260507120523 | 14 | 160 | 1.6 | 6.4 | 0.00 | 0.00 | 0.00 | 59 | 1015.5 |
| 20260507120029 | 13 | 126 | 0.0 | 8.0 | 0.00 | 0.00 | 0.00 | 61 | 1015.5 |
| 20260507115518 | 13 | 142 | 0.0 | 8.0 | 0.00 | 0.00 | 0.00 | 62 | 1015.6 |
| 20260507115018 | 13 | 163 | 0.0 | 8.0 | 0.00 | 0.00 | 0.00 | 62 | 1015.6 |
| 20260507114517 | 13 | 112 | 3.2 | 8.0 | 0.00 | 0.00 | 0.00 | 62 | 1015.7 |
| 20260507114020 | 13 | 240 | 1.6 | 12.9 | 0.00 | 0.00 | 0.00 | 62 | 1015.7 |
| 20260507113516 | 13 | 156 | 1.6 | 12.9 | 0.00 | 0.00 | 0.00 | 62 | 1015.7 |
| 20260507113028 | 13 | 170 | 0.0 | 4.8 | 0.00 | 0.00 | 0.00 | 63 | 1015.8 |
| 20260507112516 | 12 | 142 | 1.6 | 4.8 | 0.00 | 0.00 | 0.00 | 64 | 1015.8 |
| 20260507112011 | 12 | 175 | 0.0 | 4.8 | 0.00 | 0.00 | 0.00 | 64 | 1015.8 |
| 20260507111509 | 12 | 75 | 0.0 | 8.0 | 0.00 | 0.00 | 0.00 | 65 | 1015.9 |
| 20260507111010 | 12 | 196 | 1.6 | 8.0 | 0.00 | 0.00 | 0.00 | 65 | 1015.9 |
| 20260507110508 | 12 | 111 | 0.0 | 6.4 | 0.00 | 0.00 | 0.00 | 67 | 1015.9 |
| 20260507110007 | 12 | 146 | 0.0 | 4.8 | 0.00 | 0.00 | 0.00 | 66 | 1016.0 |
| 20260507105505 | 12 | 107 | 0.0 | 6.4 | 0.00 | 0.00 | 0.00 | 66 | 1016.0 |